Temp
15 15 14 12 11 10 11 12 13 15 17 17 17 17 17 18 18 18 18 18 17 16 16 15 14 14 13 13 13 13 14 15 15 13 16 21 21 21 21 21 21 21 21 21 21 22 21 21 21 21 22 22 21 22 22 22 23 23 23 22 22 21 22 23 24 24 24 26 24 23 24 23 23 23 22 22 22 21 21 21 19 17 17 17 17 17 18 18
15 15 13 12 12 13 13 14 16 17 17 17 17 17 18 19 19 18 18 18 17 16 16 14 14 13 13 14 13 13 14 14 14 15 19 22 21 21 21 21 21 21 21 21 22 22 22 22 21 21 23 22 21 22 22 22 23 23 22 22 22 23 23 24 25 25 25 25 23 23 24 23 23 22 22 22 22 21 22 22 19 17 17 17 17 18 18 18
15 14 13 12 13 14 15 16 18 17 17 17 17 18 19 19 19 18 18 18 17 17 16 15 14 13 14 14 13 14 13 13 17 19 22 22 22 21 21 21 21 21 22 22 22 22 22 22 21 21 23 23 21 22 23 22 23 23 22 23 24 24 24 24 24 25 25 24 24 25 24 23 23 22 22 22 21 21 22 22 20 18 17 18 18 18 18 18
14 13 13 14 14 15 17 18 17 17 16 17 18 19 19 19 19 18 18 18 18 17 17 16 15 15 15 15 14 14 13 16 21 22 22 22 22 22 21 22 21 21 22 22 22 22 22 22 21 22 23 23 22 22 23 23 23 23 23 24 24 23 24 25 24 24 25 24 25 24 23 23 23 22 22 21 21 22 22 22 22 19 17 18 18 18 18 18
13 13 14 15 15 16 17 17 17 17 17 17 18 19 19 19 19 18 18 18 18 18 17 17 16 16 16 15 14 13 14 20 22 22 22 22 22 22 22 22 22 22 22 22 22 22 22 21 22 23 23 23 23 23 24 23 23 23 24 25 24 23 24 26 24 24 24 24 24 23 23 24 23 22 22 21 23 24 22 23 23 19 17 17 17 18 18 18
13 14 15 15 16 17 18 17 17 17 17 18 19 19 19 19 19 19 18 19 19 18 17 16 16 16 16 15 14 13 17 22 22 22 22 22 22 22 22 22 22 22 22 22 22 22 22 22 23 24 24 24 23 24 24 23 23 24 24 24 24 23 25 26 25 24 25 24 23 23 24 23 22 23 22 22 23 23 22 23 23 19 17 17 17 17 18 18
16 16 16 17 18 18 18 17 17 17 17 18 19 19 19 19 19 19 19 19 19 18 17 16 16 16 15 15 14 15 20 23 22 23 23 22 23 23 23 23 23 23 23 22 22 22 23 23 24 24 24 24 23 24 24 23 23 24 24 25 24 24 24 26 24 23 24 25 24 23 23 23 23 24 22 22 23 22 22 22 21 19 17 17 17 17 17 17
17 17 17 18 18 18 18 18 17 18 18 19 19 19 19 19 19 20 20 20 19 18 17 17 16 16 15 14 17 20 22 23 23 23 23 23 23 23 24 24 23 23 23 23 23 22 22 24 24 23 24 24 23 24 24 24 24 24 25 25 25 24 24 25 24 23 24 26 24 23 23 23 23 24 23 23 23 21 21 21 19 18 17 17 17 17 17 17
18 17 18 19 19 19 18 18 18 18 18 19 19 19 19 19 20 20 20 20 19 19 18 17 16 16 15 14 18 23 23 23 24 23 23 23 23 24 24 24 24 23 23 23 22 22 22 24 23 23 24 24 23 24 24 24 25 24 25 25 24 25 25 25 25 24 23 24 24 24 23 22 22 23 24 24 22 21 21 20 19 18 18 17 17 16 17 16
18 18 19 19 19 19 19 19 19 19 19 19 19 19 19 20 20 20 20 19 19 18 18 18 17 16 15 16 20 23 23 24 24 24 24 24 24 24 24 24 24 23 23 22 22 22 23 23 23 23 24 23 23 24 24 24 25 24 24 24 23 24 24 23 24 23 23 24 24 25 23 21 22 23 25 25 21 21 21 20 19 18 18 17 17 17 16 16
18 19 19 19 19 19 19 19 19 20 20 19 19 19 19 20 20 20 19 19 19 18 18 18 17 17 15 18 23 24 24 25 25 25 25 25 25 25 24 24 24 23 23 22 21 23 23 22 21 22 24 24 24 24 24 24 25 24 24 24 23 24 23 22 22 22 23 24 23 24 23 22 23 23 24 22 20 21 21 20 19 19 18 17 17 17 16 15
19 19 19 19 19 19 19 20 20 20 20 20 20 20 20 20 20 20 19 19 19 19 19 18 18 17 17 20 24 24 24 25 25 25 25 25 25 25 25 24 24 24 24 22 22 23 23 22 22 24 25 24 25 25 25 24 24 24 24 25 24 24 22 21 21 21 22 23 22 24 23 23 24 22 21 20 20 21 20 19 19 19 18 17 17 17 17 16
19 20 19 19 20 20 20 20 20 21 21 21 21 21 21 21 21 21 19 19 19 19 18 18 18 17 19 24 25 25 25 25 25 25 25 25 25 25 25 24 24 24 24 23 23 23 24 23 23 24 25 25 25 25 25 24 23 24 23 24 24 23 22 21 20 20 22 21 21 24 23 22 23 20 20 19 20 20 20 19 19 19 19 18 18 17 17 16
19 19 19 19 20 20 20 20 21 21 22 22 22 22 22 22 22 21 20 19 19 19 19 19 18 17 21 25 25 25 26 25 26 25 25 25 25 25 25 25 25 24 24 24 23 24 24 24 23 24 24 24 25 25 25 23 22 23 23 22 21 21 21 21 20 20 22 20 21 24 23 22 22 20 19 19 19 20 19 19 19 19 19 18 18 17 16 16
19 19 19 20 20 20 20 21 21 22 22 22 23 23 23 23 23 21 20 20 19 19 19 19 19 19 23 25 25 26 26 26 26 26 26 25 25 25 26 26 25 25 25 25 24 24 25 24 24 24 24 24 24 24 24 24 22 21 22 21 20 20 21 21 20 19 20 20 21 24 22 20 20 19 18 19 20 20 19 18 18 18 18 18 17 16 16 16
19 19 19 20 20 20 21 21 21 22 22 23 23 23 23 23 22 21 20 19 19 19 19 19 18 19 23 25 25 26 26 26 27 27 26 26 25 26 26 26 25 26 26 25 25 24 25 25 24 23 24 24 23 24 24 23 22 20 20 20 19 20 20 20 21 19 19 19 19 22 20 17 18 18 18 19 19 18 17 17 16 17 17 17 17 16 16 16
19 20 20 20 20 21 21 21 22 22 22 22 22 23 23 22 21 20 20 20 19 19 18 18 18 19 24 26 26 26 25 25 26 26 27 26 26 26 25 25 24 25 25 25 25 25 24 24 23 22 22 22 21 24 23 21 21 20 19 19 18 19 19 19 20 20 19 19 18 18 17 16 17 16 17 18 18 17 16 16 16 16 16 16 16 16 15 15
20 20 20 20 21 21 21 22 22 22 22 22 22 23 22 21 20 20 20 20 19 19 19 19 19 21 24 26 25 25 25 26 26 26 27 26 26 25 24 24 23 23 25 25 25 24 24 23 23 24 23 22 22 24 22 20 21 20 19 20 19 19 19 18 19 19 19 18 17 17 16 16 16 16 16 16 17 17 17 16 16 16 16 16 16 16 15 15
20 20 20 21 21 22 22 22 22 22 22 22 22 22 21 20 20 20 20 20 21 22 23 22 22 23 24 25 25 25 25 26 27 27 27 27 26 25 24 24 23 24 25 25 24 23 23 24 23 23 23 22 23 23 22 22 22 21 20 19 19 19 19 19 19 20 19 18 17 17 16 16 16 16 16 16 16 17 17 17 16 16 16 16 17 16 16 16
20 20 21 21 21 22 22 23 23 23 23 23 23 22 21 21 21 22 21 22 22 23 24 24 23 24 25 25 25 25 26 26 26 26 26 26 26 25 24 23 24 24 24 24 24 22 22 23 23 22 22 22 21 21 21 21 20 20 19 19 19 19 19 19 19 20 20 19 17 17 17 16 16 15 15 16 16 16 16 16 16 16 16 16 17 17 17 17
20 21 21 21 22 22 22 23 23 23 23 24 23 22 21 21 21 22 22 22 22 19 22 23 21 23 24 24 24 25 26 26 26 26 26 26 26 26 24 23 25 24 22 22 23 22 22 22 22 22 21 21 20 20 20 21 20 19 19 18 18 18 18 19 19 20 20 19 17 18 17 16 16 16 15 15 15 15 15 15 16 16 16 16 15 16 17 16
20 21 21 21 22 22 23 23 23 23 23 23 23 21 21 21 21 22 21 22 22 19 21 22 21 23 24 24 24 25 26 26 26 26 26 26 26 25 24 24 24 23 22 23 23 22 22 22 22 21 21 21 20 19 20 20 19 19 18 18 18 18 19 19 19 19 20 19 18 18 17 17 17 17 16 16 15 15 15 15 15 16 17 16 15 15 16 16
21 21 21 22 22 22 23 23 23 23 23 23 23 21 21 21 21 22 21 22 22 22 23 24 24 25 26 25 25 26 26 25 25 26 26 26 26 25 25 24 23 23 23 23 23 22 21 22 22 20 20 21 21 19 20 20 19 18 19 19 18 18 19 19 19 19 20 19 18 18 17 17 17 17 17 16 16 15 15 15 15 15 16 15 15 15 15 17
21 21 21 22 22 22 23 23 23 23 23 23 22 21 21 22 22 22 22 21 21 24 24 24 24 25 26 26 26 26 26 24 24 25 25 25 25 24 24 24 23 22 21 22 23 22 21 22 21 20 20 21 21 21 21 21 20 19 19 19 19 18 19 19 19 19 19 19 19 18 17 16 17 16 16 16 17 16 15 15 15 15 15 15 15 15 15 16
21 21 21 22 22 23 23 23 23 23 23 23 22 22 22 22 22 22 23 22 22 24 24 24 24 25 25 26 26 26 25 25 24 24 24 25 24 24 24 23 23 22 21 22 23 22 22 21 20 21 21 21 22 21 20 20 21 20 19 19 19 19 19 18 18 19 19 19 19 19 18 16 16 16 16 16 16 16 16 15 15 15 15 15 15 15 15 15
21 21 21 22 22 23 23 24 23 22 23 23 23 23 22 23 23 23 23 22 22 23 24 25 25 25 26 25 25 26 25 25 25 24 24 24 24 24 24 22 22 22 22 22 22 22 22 20 20 22 22 22 22 21 19 19 21 20 19 19 19 19 19 18 18 19 19 18 18 19 18 16 16 16 16 16 16 16 16 15 15 15 15 15 15 15 15 15
21 22 22 22 22 23 24 23 23 23 23 23 23 23 23 23 23 23 23 21 21 22 23 25 25 26 26 24 24 25 24 24 25 24 24 24 23 24 24 22 23 22 21 21 21 21 22 21 21 22 22 22 21 21 20 19 21 20 19 19 19 19 19 18 18 18 17 18 18 17 17 16 15 16 16 16 16 16 15 15 15 15 15 15 15 15 15 15
22 22 22 22 22 22 23 22 22 23 23 23 23 23 23 23 23 23 22 20 21 23 23 24 26 26 25 24 24 25 24 24 24 24 23 24 23 24 23 22 22 21 21 22 21 21 22 22 22 22 22 21 21 20 19 19 20 19 18 19 18 18 19 18 18 18 17 18 18 16 16 16 15 16 16 16 16 15 15 15 15 15 15 15 15 15 15 15
22 22 22 22 22 22 22 22 22 22 23 23 23 23 23 23 23 23 22 20 22 23 23 25 26 25 24 24 24 24 23 23 23 23 23 23 23 23 23 21 21 21 21 22 22 21 22 22 22 22 21 21 21 20 18 19 20 17 17 19 18 18 18 17 17 18 18 17 16 15 15 16 15 16 16 16 16 15 15 15 15 15 15 16 16 16 15 15
22 22 22 22 22 22 22 22 23 23 23 23 23 23 23 23 23 22 20 20 22 23 23 24 25 24 24 24 23 22 23 23 22 23 22 22 22 22 21 20 21 22 21 21 21 21 21 21 21 22 21 21 21 19 18 18 19 18 18 19 19 18 18 18 17 18 19 17 15 14 15 16 16 15 16 16 16 15 15 15 15 15 16 16 16 16 16 15
22 22 22 22 22 22 22 22 23 23 23 23 23 23 23 23 22 21 20 21 22 22 23 23 23 23 23 23 23 22 22 22 21 22 21 20 20 21 21 21 21 22 22 21 21 21 21 21 21 21 20 20 21 21 18 17 18 19 20 19 19 18 18 19 18 18 18 16 15 15 14 16 15 15 15 16 16 16 16 16 15 15 16 16 16 15 15 15
22 22 22 22 22 22 22 23 24 23 23 23 22 23 23 22 21 20 21 21 21 22 23 22 22 22 22 22 21 21 21 22 21 20 20 20 19 19 19 19 19 20 20 19 20 20 21 20 20 20 20 20 21 22 20 19 19 20 20 20 19 18 18 18 17 17 16 16 15 14 14 15 15 15 16 16 16 16 16 16 16 15 16 16 16 16 15 15
22 22 22 22 22 22 23 23 23 23 23 22 22 23 23 21 20 20 20 21 21 22 22 22 22 22 22 22 21 20 21 20 20 20 19 19 19 19 19 18 18 19 20 18 19 20 20 20 20 20 21 20 20 21 21 20 20 20 20 20 20 18 17 17 15 15 15 16 15 14 15 15 14 15 16 16 16 16 16 16 16 15 15 15 15 15 15 15
22 22 22 22 23 23 23 24 24 23 23 22 23 23 22 21 20 20 20 21 21 22 22 21 21 22 22 22 21 21 21 20 20 20 20 19 19 19 19 19 18 19 19 18 18 19 19 19 20 20 20 20 20 19 19 20 20 19 18 19 19 19 18 17 16 16 15 15 15 14 15 15 15 16 16 16 16 16 16 16 15 15 15 15 15 15 15 15
23 23 22 23 23 23 24 23 23 23 21 22 23 23 21 20 20 19 21 21 21 22 21 20 22 23 22 21 21 20 21 20 19 19 19 18 18 18 18 19 19 18 19 19 17 18 18 18 19 20 19 19 19 19 18 19 20 17 16 19 19 18 18 16 14 15 15 15 14 14 14 15 15 16 16 16 16 16 15 15 15 15 15 15 15 15 15 15
23 23 23 23 23 23 24 23 23 23 21 22 24 22 20 20 20 20 21 21 21 21 22 21 21 22 21 21 21 21 21 20 19 19 19 18 18 18 18 19 19 18 19 19 18 18 18 18 19 20 20 19 19 19 18 18 20 18 17 19 17 16 17 16 14 13 14 15 14 13 14 15 15 16 15 15 16 15 15 15 15 15 15 15 16 15 15 15
23 23 23 24 24 24 24 23 23 22 22 24 24 21 20 21 20 21 21 21 20 20 21 21 20 20 20 21 20 20 21 20 19 19 19 18 18 19 19 19 19 18 18 18 18 18 18 19 19 19 20 20 18 19 19 18 19 20 19 18 17 16 17 17 16 14 13 15 14 14 15 15 15 15 15 15 15 15 15 15 15 15 15 16 16 15 15 15
23 23 23 23 24 24 24 24 23 21 21 24 22 20 20 21 20 21 21 21 20 21 21 21 20 20 20 20 20 20 20 20 19 19 19 19 19 19 19 18 19 19 17 17 19 17 17 19 19 18 19 20 19 19 20 19 18 18 18 17 17 18 18 18 17 16 15 14 14 14 14 15 15 15 15 15 15 16 15 15 15 16 16 16 16 16 15 15
23 23 23 23 24 24 24 23 22 22 23 23 21 20 21 21 21 20 20 20 21 21 21 20 20 20 19 20 20 20 20 20 19 18 18 19 18 19 18 18 19 19 17 18 18 17 16 18 19 19 18 18 19 19 18 19 18 18 18 17 17 17 17 17 16 16 16 14 13 14 14 14 16 16 15 15 16 16 16 15 16 16 16 16 16 16 16 16
21 22 23 22 23 24 23 23 22 23 23 21 20 21 21 21 22 21 19 20 21 21 21 20 20 21 20 20 20 20 19 19 19 18 18 18 18 19 19 18 19 19 18 18 17 16 16 18 18 19 19 17 18 18 17 17 18 18 18 18 17 16 16 16 15 15 15 14 13 14 14 15 16 15 16 16 16 16 16 16 16 16 16 16 16 16 16 16
19 22 23 22 23 23 23 23 21 21 21 20 19 21 21 22 23 22 20 20 20 20 20 20 21 20 20 20 20 20 20 19 19 18 18 18 18 19 19 18 18 18 18 19 18 17 18 18 18 18 18 17 18 17 16 16 17 17 17 17 16 16 17 17 16 14 14 14 13 14 15 16 16 15 16 17 16 16 16 16 16 16 16 16 16 16 16 15
21 22 22 22 23 23 23 22 19 18 21 22 21 21 21 22 22 22 21 21 21 21 20 21 20 20 20 20 20 20 20 19 18 19 19 18 18 19 19 18 17 18 18 19 18 16 17 18 18 17 17 17 17 17 15 15 16 17 16 15 15 16 17 18 17 15 14 14 13 14 15 16 16 15 16 17 16 16 15 15 16 16 16 16 16 16 15 15
22 22 22 22 23 23 23 22 20 20 21 22 21 21 21 22 22 22 21 21 21 21 21 21 20 20 20 20 20 20 20 19 18 19 19 19 19 20 19 18 18 18 18 19 18 17 17 17 17 17 17 17 18 18 16 15 16 17 16 15 14 15 16 17 16 16 15 14 14 15 15 16 16 15 15 15 15 15 15 15 16 17 16 16 16 16 15 14
21 20 21 23 23 23 23 22 22 22 21 21 22 22 21 21 21 21 21 21 21 21 22 21 20 20 20 19 20 20 19 19 19 18 19 19 19 20 19 19 19 18 19 19 18 18 18 17 16 17 17 17 17 18 18 18 18 17 16 14 14 15 15 15 15 15 16 15 14 16 16 16 16 15 15 15 15 15 15 14 15 16 16 16 16 16 14 14
20 20 20 22 22 22 21 20 21 22 21 21 22 21 21 21 21 21 21 20 19 20 21 20 19 20 19 19 19 18 18 19 19 19 18 19 20 20 20 19 19 19 19 18 17 18 17 16 17 17 17 16 17 17 18 18 17 16 16 16 15 15 16 16 16 17 17 14 13 15 16 16 16 15 15 15 15 16 16 15 14 15 15 15 15 15 14 14
21 21 21 22 21 21 19 17 19 22 22 22 22 20 20 22 21 20 21 20 19 19 20 20 19 20 20 19 20 19 18 18 19 19 19 19 20 20 19 20 19 19 19 18 17 18 17 15 16 18 18 17 18 18 16 16 18 17 17 17 16 15 15 16 17 17 17 14 14 16 16 16 16 16 15 15 15 16 16 15 15 15 15 15 15 15 14 14
21 21 20 21 22 21 21 19 20 22 21 21 22 20 20 21 21 21 21 20 20 19 20 19 19 20 20 20 20 20 18 19 19 19 19 18 20 19 19 20 20 19 20 18 16 17 18 17 16 17 18 17 17 17 15 15 18 18 17 18 17 16 16 17 18 17 15 15 16 17 15 15 17 16 16 16 15 15 16 16 16 16 16 15 15 14 14 14
19 20 18 19 20 22 22 20 20 21 20 20 20 20 20 21 21 21 21 20 20 20 20 20 19 19 20 19 20 20 19 19 19 19 18 18 19 19 20 20 19 19 20 19 17 18 19 18 16 16 17 15 14 15 14 15 17 17 17 18 17 17 17 18 17 16 15 17 17 16 15 16 17 17 17 16 15 16 16 15 15 15 15 15 14 14 14 14
18 19 17 16 19 20 19 18 19 21 21 20 20 20 21 22 21 21 20 21 21 20 19 21 20 19 18 19 20 20 19 20 19 19 19 19 18 19 20 20 19 19 20 20 17 16 18 18 15 15 17 16 14 14 15 16 17 17 17 17 17 17 17 17 17 15 15 16 16 14 14 16 17 17 17 16 14 15 15 14 14 15 15 15 14 15 15 14
18 19 18 18 19 18 17 18 19 22 21 19 21 21 20 21 22 20 20 21 22 20 19 20 20 18 17 18 20 21 20 20 20 19 19 19 18 19 19 20 20 19 20 19 17 16 18 17 14 15 18 17 15 16 16 16 17 17 17 16 16 16 16 16 16 15 15 15 14 13 14 16 16 15 15 14 13 13 14 14 15 15 15 14 14 15 15 15
15 15 15 19 21 18 18 19 19 21 22 21 21 21 20 21 22 21 20 20 20 21 21 21 20 18 18 18 20 21 20 19 20 21 20 20 20 20 20 19 19 20 20 19 18 18 19 17 15 16 19 18 16 16 16 16 16 17 18 17 17 17 16 16 16 15 16 16 15 14 15 17 17 14 14 14 14 14 15 15 15 15 14 14 15 15 15 15
15 15 14 18 21 18 17 19 19 20 22 21 20 20 21 22 21 21 22 20 18 19 20 20 20 19 19 20 21 21 21 20 20 20 19 20 20 19 19 19 19 20 20 19 17 17 17 18 17 17 18 18 16 15 15 16 17 17 18 18 17 16 16 16 16 15 15 16 16 16 17 17 15 13 14 16 15 15 15 15 15 15 14 14 14 15 15 15
Height
785 784 783 782 782 781 781 780 779 778 777 776 776 775 774 774 773 772 772 771 771 770 769 769 767 767 766 765 765 764 763 763 762 762 761 759 759 760 760 761 761 761 762 762 763 764 764 765 765 765 765 766 769 770 770 770 771 775 784 793 797 800 796 787 785 784 781 780 780 779 776 778 779 778 776 775 777 780 781 782 785 786 785 786 787 788 788 791
784 783 783 782 782 781 780 779 779 778 777 777 776 775 774 774 773 773 772 771 770 770 769 768 767 766 766 765 765 764 763 762 761 761 759 758 758 759 760 761 761 762 762 763 763 763 764 766 765 765 766 769 772 771 772 772 772 779 789 794 793 791 785 778 777 777 778 779 781 779 775 778 780 779 779 781 784 783 783 784 786 790 790 788 788 789 790 791
784 784 783 783 782 781 780 779 779 778 777 776 776 775 774 774 773 773 772 771 770 769 769 768 767 766 765 765 764 764 763 762 761 760 758 758 758 759 760 761 762 762 762 763 763 764 764 764 763 765 767 771 773 772 774 774 774 779 785 790 786 782 779 776 775 775 776 777 779 776 773 777 778 778 780 784 788 787 785 784 785 790 792 790 789 789 789 790
785 784 783 783 782 781 780 780 779 778 777 777 776 775 775 774 774 773 772 771 770 769 769 768 767 766 765 764 764 764 763 762 762 760 759 759 758 758 760 761 761 762 763 763 764 764 763 763 763 765 768 772 775 774 775 775 776 779 782 784 781 779 779 773 773 776 774 774 774 775 777 778 777 778 781 786 790 789 784 779 778 784 788 788 788 788 789 790
785 785 784 783 782 781 781 780 780 779 778 777 776 776 775 775 774 773 772 771 770 770 768 768 767 766 765 764 764 763 763 767 765 760 760 760 759 759 760 761 762 762 763 763 764 764 763 764 764 766 770 773 775 774 775 774 774 778 777 776 776 778 777 769 771 774 771 773 775 776 777 776 777 779 781 784 786 784 780 776 774 779 783 784 785 787 789 791
786 785 785 784 783 782 781 781 780 779 778 778 777 777 776 775 774 773 772 771 770 770 768 767 767 765 765 764 764 763 763 769 765 759 761 760 760 760 760 761 762 762 763 764 764 764 764 765 765 769 771 773 776 775 775 774 773 777 775 773 773 775 773 766 768 772 769 773 777 776 773 774 780 780 779 781 780 777 775 773 774 779 782 784 785 787 790 792
786 785 785 784 783 783 782 781 780 779 779 778 778 777 776 775 774 773 772 771 770 769 768 767 766 766 765 764 764 763 763 765 762 760 761 761 761 761 761 762 762 763 763 764 764 765 766 766 767 770 772 774 776 775 774 774 773 777 776 771 771 772 770 766 768 772 770 769 772 774 773 776 780 778 778 779 776 775 774 774 776 780 784 787 789 791 792 793
786 786 785 784 783 783 782 782 781 780 779 778 778 777 776 775 774 773 772 771 770 769 768 767 766 765 765 764 764 763 764 764 761 761 761 761 762 761 762 762 763 764 764 764 764 765 766 767 769 771 774 775 775 775 774 774 774 776 775 771 769 769 769 767 768 771 771 768 769 774 776 777 776 775 777 776 775 776 775 777 779 781 786 789 791 794 795 796
786 786 785 784 783 783 783 782 781 780 779 779 778 777 776 775 774 773 772 771 770 769 769 767 767 765 765 765 764 765 767 763 762 762 761 762 762 762 763 763 763 764 764 765 765 765 767 769 770 770 772 774 774 774 772 775 777 774 773 771 771 771 769 769 768 770 774 771 770 774 779 779 776 776 777 774 776 778 777 780 782 783 788 791 793 796 797 798
786 786 785 784 784 783 783 782 781 780 780 779 778 777 776 775 774 773 772 771 770 769 769 768 767 766 766 765 765 770 768 763 763 762 762 762 762 763 763 763 764 764 765 766 765 766 767 768 769 767 769 773 773 773 773 775 773 771 772 772 774 774 772 773 771 771 773 772 770 773 781 784 779 780 779 775 777 778 779 783 785 786 790 792 795 797 798 799
787 786 785 785 784 784 783 783 782 780 780 779 778 777 775 774 773 773 772 771 770 769 769 768 767 766 766 765 768 771 766 762 764 762 762 762 762 763 763 763 763 764 765 765 765 765 765 766 766 767 770 772 772 773 772 770 769 771 771 773 776 775 774 775 775 773 771 773 773 773 782 785 782 784 783 781 780 778 781 787 788 789 791 794 796 798 800 801
787 786 785 785 784 784 784 783 782 781 780 778 777 776 775 774 773 772 772 771 770 769 769 768 768 767 766 766 768 767 763 763 764 763 763 762 762 763 762 763 763 763 764 764 765 764 764 765 764 768 771 770 773 774 771 767 769 771 770 773 776 775 779 781 779 777 774 778 776 772 786 791 787 790 788 786 783 780 784 789 791 792 793 796 799 802 804 806
787 786 785 785 785 784 784 783 782 781 779 778 777 775 774 773 772 772 771 771 770 770 769 768 768 767 767 768 766 763 763 763 763 763 763 762 763 762 762 763 763 763 764 763 763 763 764 763 764 767 767 769 773 771 768 769 771 772 772 776 781 783 791 790 784 781 777 781 777 775 793 798 793 794 789 788 786 785 790 792 794 795 796 800 803 807 810 811
786 786 786 785 785 785 784 783 782 780 779 777 776 774 774 772 772 771 771 771 770 770 770 769 768 767 768 768 764 762 763 762 762 762 762 762 762 761 762 762 762 762 762 762 762 763 763 762 763 765 766 769 770 767 770 774 776 777 778 784 794 799 802 794 788 786 783 784 778 776 794 800 796 797 791 789 790 791 798 800 801 802 802 805 808 810 813 814
786 786 786 786 785 785 784 783 782 780 778 777 774 773 772 771 771 770 770 771 770 770 770 769 769 768 770 769 763 762 762 761 762 761 761 762 761 761 761 761 762 761 760 760 761 763 763 762 764 768 768 767 768 772 777 779 782 785 789 800 807 805 803 796 790 793 792 790 780 777 797 807 802 801 795 792 794 797 805 809 810 812 811 811 812 813 815 816
787 786 786 786 786 785 784 783 782 780 778 775 773 772 771 770 770 770 771 771 770 771 770 770 770 769 774 771 763 762 762 762 761 761 761 761 760 761 760 760 761 760 760 760 760 762 762 762 767 772 771 771 776 779 782 788 793 796 802 812 815 807 806 802 795 796 794 794 790 787 807 821 812 806 799 795 798 805 812 816 816 817 817 816 817 817 818 819
787 786 786 786 786 785 784 783 781 779 777 775 773 772 770 770 769 770 770 770 771 771 770 772 770 770 772 767 764 765 762 761 761 760 760 760 760 760 760 761 761 761 760 759 761 761 762 766 772 775 775 781 784 779 787 802 806 807 810 815 817 812 811 810 805 802 796 799 806 803 814 827 821 813 808 803 805 811 818 821 821 821 821 821 821 822 822 823
786 787 787 786 786 785 784 783 781 779 777 775 773 773 772 771 771 771 771 771 771 771 772 771 770 777 778 768 767 767 762 761 761 760 760 760 760 760 761 762 761 762 762 763 764 765 767 771 775 778 780 784 784 782 793 805 803 806 811 811 816 815 814 816 813 808 802 806 814 815 820 827 823 818 816 813 811 815 820 821 823 823 822 823 824 825 826 825
787 787 787 787 786 784 784 783 781 779 776 774 774 773 772 771 771 771 771 771 772 774 777 774 773 782 783 771 766 765 762 762 761 759 760 759 759 760 761 762 763 764 768 772 772 773 774 777 781 786 790 790 790 789 791 795 794 800 807 808 813 815 816 816 812 807 804 811 822 824 828 829 827 825 823 820 815 818 823 822 824 824 822 822 822 824 826 826
787 787 787 787 786 784 784 782 781 779 777 776 774 773 776 778 778 777 773 771 773 775 776 775 774 777 776 769 765 764 763 762 762 760 760 759 759 760 762 764 767 769 775 779 779 779 780 786 794 797 798 795 794 795 793 795 798 801 807 811 813 815 817 815 810 805 799 812 830 830 829 831 831 831 828 824 820 822 828 827 828 828 826 825 822 824 825 826
787 787 787 786 785 785 784 783 782 780 778 777 775 776 782 786 788 788 781 775 773 772 773 772 772 773 770 767 765 764 765 764 763 761 760 760 758 762 768 769 773 779 783 783 782 782 783 795 803 798 799 797 797 799 796 798 802 805 811 815 816 816 818 813 809 807 799 812 834 829 827 834 834 833 831 827 827 830 833 833 833 830 828 829 829 829 829 828
787 787 787 786 785 785 784 783 782 781 780 779 777 780 784 786 787 786 785 784 777 771 772 771 770 771 766 765 765 764 768 771 768 763 761 761 761 768 773 774 779 785 785 783 786 790 794 802 802 796 797 797 799 801 798 801 806 810 813 815 819 818 816 814 811 809 802 813 833 829 829 839 836 833 832 831 834 835 832 832 834 832 829 831 833 834 833 829
787 787 787 786 785 784 784 783 783 782 781 780 780 782 784 785 784 782 784 790 785 774 772 772 771 771 767 766 766 765 771 777 776 770 763 763 767 771 775 779 784 787 788 788 790 799 805 803 798 797 798 796 800 804 803 805 809 813 813 815 821 818 816 820 816 811 805 812 827 827 829 839 838 834 834 834 836 836 834 833 835 835 835 836 837 838 834 828
786 786 786 786 785 785 784 784 783 782 782 781 782 783 784 783 782 782 783 791 792 779 772 772 771 771 771 768 766 768 774 777 778 774 766 767 772 773 777 783 787 791 796 793 792 800 805 801 797 799 800 799 800 802 803 805 809 813 813 813 819 817 815 818 816 813 810 812 819 822 833 844 843 842 842 839 837 838 841 842 841 840 840 840 840 839 836 832
786 786 786 785 786 784 784 783 783 783 782 782 782 783 783 782 780 780 783 793 796 783 774 773 772 772 770 768 767 769 774 776 777 775 769 769 773 776 780 783 787 797 800 794 794 801 803 801 799 798 799 799 798 802 807 808 808 811 812 811 813 814 814 816 816 815 816 820 820 820 840 857 852 849 850 846 843 844 846 846 845 843 841 842 842 840 838 837
786 786 786 785 785 784 784 783 783 783 782 782 782 782 782 781 780 779 784 799 802 790 782 778 777 775 770 771 770 769 779 782 776 773 772 771 772 774 782 786 788 795 797 793 796 801 802 801 800 798 798 799 801 804 808 809 808 811 812 809 810 812 815 819 818 818 825 832 827 820 839 862 860 853 854 851 849 850 849 849 847 846 845 845 845 844 842 841
785 786 785 786 785 784 784 784 784 784 783 784 782 782 781 779 779 777 788 811 813 797 789 783 778 776 773 774 771 775 790 788 776 775 773 773 772 771 782 791 789 792 794 795 803 806 802 801 802 800 800 803 807 807 808 808 808 812 811 809 812 812 814 821 821 825 832 832 830 830 838 856 865 860 856 852 852 854 854 854 852 850 849 848 847 846 844 843
785 785 785 785 785 785 784 784 785 783 784 784 781 781 781 779 779 779 797 827 819 794 790 784 775 773 774 774 773 780 789 786 785 786 776 773 776 774 785 793 792 796 794 796 810 810 802 802 804 802 805 810 810 808 809 808 809 814 812 809 814 815 816 822 823 828 833 831 838 846 844 854 866 861 855 853 855 858 858 857 856 853 851 850 848 847 845 844
785 785 785 785 785 785 785 785 784 783 784 783 781 781 779 778 779 785 808 827 812 791 790 784 776 777 778 778 781 785 785 786 793 791 778 778 780 778 788 794 793 798 796 796 806 808 802 802 802 802 808 811 808 808 808 807 810 815 814 812 817 821 822 825 828 827 829 839 854 858 852 858 867 862 857 858 859 861 860 857 856 854 852 850 849 848 847 846
785 785 785 785 785 785 785 785 784 784 783 782 782 780 778 780 786 803 824 824 808 796 790 784 784 787 785 786 791 792 791 793 795 790 785 787 785 783 789 791 790 796 800 800 804 807 804 800 800 803 808 808 805 808 811 808 809 811 812 814 819 825 824 826 833 829 831 849 861 861 856 856 865 866 861 861 860 859 859 858 857 854 852 851 850 850 849 848
785 785 785 785 786 786 785 785 783 784 782 781 781 778 780 788 798 819 829 815 805 801 792 791 794 792 791 795 799 799 797 798 797 796 797 797 795 794 795 797 798 801 807 809 809 809 806 804 807 806 806 807 803 806 811 811 811 811 812 816 822 831 830 828 832 833 844 860 860 859 858 855 864 869 862 859 857 855 856 857 857 855 853 852 851 850 850 849
784 785 785 785 786 785 785 785 783 783 782 781 781 779 787 800 811 823 822 808 807 806 799 800 798 796 798 800 805 807 804 804 804 804 807 809 810 811 811 815 815 814 820 824 820 815 813 813 813 808 805 807 806 808 810 810 811 811 813 818 828 841 844 843 849 851 858 862 858 860 860 859 867 865 857 856 854 853 854 853 854 854 853 852 851 850 849 849
785 785 785 785 785 785 784 784 783 783 782 780 782 783 793 810 821 825 819 812 811 805 800 802 801 801 801 802 809 810 808 811 809 808 811 813 816 817 817 820 820 819 824 830 827 823 821 818 814 812 809 808 811 815 816 816 815 814 818 822 830 844 853 860 869 869 865 861 859 862 860 863 869 861 854 854 852 852 852 851 852 853 853 852 851 851 850 849
784 784 785 784 784 784 783 783 782 782 781 780 784 790 801 816 824 821 817 813 809 802 801 805 803 803 803 807 812 810 811 815 812 812 815 816 820 823 820 819 819 819 822 829 834 832 834 832 824 821 819 814 815 818 819 819 819 822 826 823 827 837 845 856 862 861 864 865 861 861 861 866 869 860 854 853 851 852 851 852 854 853 853 854 852 852 851 850
784 784 784 783 783 784 783 783 782 781 782 782 787 798 811 821 824 821 815 810 807 804 804 806 804 804 808 811 812 810 812 815 817 818 820 823 827 828 826 822 820 822 822 828 836 837 841 840 827 821 820 818 818 818 817 819 821 828 830 824 828 833 838 855 865 861 862 867 867 868 867 866 862 856 853 852 852 853 853 853 854 854 855 854 853 853 852 851
784 783 783 783 783 783 782 783 782 781 782 783 793 808 816 817 817 817 811 805 806 807 806 807 807 810 815 815 813 812 810 813 819 821 823 829 829 827 827 823 820 822 822 827 834 836 841 841 827 820 819 817 819 819 818 819 821 826 830 830 835 836 836 850 866 870 867 866 871 875 871 865 861 857 854 854 854 854 854 854 854 854 855 854 853 852 852 851
783 783 783 782 783 783 782 783 782 782 783 785 798 812 815 811 809 808 805 803 806 807 807 812 815 818 822 821 820 818 812 814 820 822 826 830 829 826 825 823 820 821 821 825 830 832 837 839 830 825 823 817 817 818 817 817 819 823 830 834 835 835 836 841 855 872 876 874 875 874 870 867 867 864 858 857 857 855 855 855 854 854 853 852 852 851 851 850
783 783 783 783 783 783 782 782 782 782 784 791 805 814 811 808 806 804 802 803 805 805 808 816 818 820 824 825 825 822 816 818 824 827 829 830 829 826 825 824 819 819 822 822 825 829 834 838 833 829 827 822 817 818 820 819 818 822 828 831 833 836 839 840 850 862 870 880 881 874 871 869 864 863 860 858 858 855 855 855 853 853 852 851 850 849 849 848
782 784 786 784 782 782 783 783 783 784 787 798 811 813 808 806 804 802 802 803 804 805 810 817 818 819 823 823 824 822 821 824 829 832 832 832 832 826 824 826 820 818 822 820 823 832 834 838 838 830 827 828 824 826 834 832 825 823 827 831 834 838 842 845 853 856 860 877 884 876 875 870 858 856 857 856 855 853 853 854 852 851 850 849 848 847 847 845
784 788 789 785 782 783 783 783 784 787 794 806 813 809 806 805 801 801 802 802 804 805 810 816 816 818 822 823 824 824 824 827 829 833 834 833 832 826 823 826 822 820 822 820 825 833 833 836 841 833 828 833 836 838 843 842 836 832 833 836 838 843 847 848 856 861 861 874 884 879 875 865 853 851 851 850 851 851 851 851 850 850 848 847 846 845 844 844
786 792 791 785 784 785 784 786 793 799 803 809 811 807 805 803 800 801 802 800 803 805 808 812 813 816 820 822 824 823 824 829 830 832 834 832 833 831 825 824 824 823 822 821 826 831 831 834 840 841 838 841 843 842 842 842 840 839 840 842 845 845 845 847 859 866 864 870 877 875 868 858 850 850 848 846 848 849 850 850 849 848 846 845 845 844 843 843
789 796 792 785 785 785 786 794 804 807 805 805 805 804 802 801 801 802 801 800 803 804 805 809 813 818 819 820 822 823 825 831 833 833 833 833 832 830 826 824 824 824 823 826 830 831 832 835 841 846 847 845 842 840 843 843 840 839 842 846 849 846 842 844 855 862 864 870 874 872 867 856 848 849 847 845 847 848 850 850 848 846 845 845 844 843 843 843
792 794 789 786 786 786 790 801 806 806 804 802 803 803 802 802 803 803 803 804 805 805 807 810 813 816 818 819 820 822 825 831 834 832 831 833 829 825 825 824 823 824 824 827 831 830 832 840 846 850 848 844 838 835 839 841 839 839 844 848 850 849 847 847 851 855 861 869 869 868 867 856 847 848 849 848 849 849 850 850 848 846 845 846 845 843 844 844
793 793 789 787 786 786 793 803 805 805 806 804 802 803 802 803 804 805 806 808 808 807 809 813 815 814 817 820 820 823 828 830 834 834 831 833 828 821 822 823 822 824 824 826 828 827 833 844 849 853 857 854 848 844 841 838 839 844 849 851 852 851 850 851 854 854 858 866 867 865 865 857 849 850 850 850 850 849 849 850 849 847 846 846 845 844 845 846
793 795 794 790 787 788 796 803 803 805 807 806 806 808 807 806 806 806 807 809 811 811 811 815 816 814 817 821 822 826 829 827 830 833 832 833 827 820 821 821 822 824 823 825 826 825 835 848 847 849 859 862 859 855 849 844 844 848 849 849 851 853 850 848 852 852 855 868 871 863 860 856 850 851 850 850 851 849 848 850 849 848 847 846 846 845 846 846
794 797 798 794 791 793 800 804 803 802 806 807 810 813 813 810 809 807 806 809 812 812 813 815 816 815 819 822 823 827 829 828 828 830 832 832 827 824 824 821 822 824 822 824 826 828 838 849 848 844 847 851 850 848 849 848 845 846 846 844 847 853 851 848 851 851 855 866 867 857 856 856 851 851 850 850 851 849 848 848 847 847 847 846 846 846 846 847
795 800 802 799 797 798 800 804 803 801 805 808 810 814 814 812 812 809 806 810 812 812 814 817 817 817 820 823 825 829 831 830 828 829 833 834 829 827 825 821 823 823 821 824 828 830 836 844 848 845 843 847 847 845 851 851 845 845 846 843 845 849 849 846 848 851 857 863 860 853 856 856 850 848 848 848 849 848 847 846 845 844 845 846 846 846 846 846
797 801 804 802 802 803 802 803 804 803 807 809 811 814 814 813 814 813 810 810 812 812 814 819 820 820 821 822 824 829 832 832 832 833 835 835 832 829 826 823 824 823 822 825 828 830 835 842 849 848 846 851 853 852 853 850 846 848 846 843 844 847 846 844 847 853 854 854 852 853 856 853 845 842 843 844 845 844 843 843 844 844 845 845 846 846 846 846
799 801 804 802 803 806 807 809 807 804 806 809 810 813 813 812 814 815 813 812 813 814 816 819 822 823 824 823 822 827 830 830 833 835 833 833 834 833 830 828 826 824 823 826 830 835 836 842 851 851 845 849 854 854 851 847 846 848 847 846 847 846 846 846 848 855 854 850 852 857 857 851 842 839 839 840 843 843 842 844 845 844 844 845 845 845 845 845
799 801 803 802 804 808 810 809 807 804 808 812 811 812 814 813 813 814 814 813 815 817 817 819 821 824 826 825 821 822 825 824 826 828 829 832 834 833 832 830 828 826 826 828 834 836 835 843 855 851 844 847 851 850 849 848 847 845 845 849 849 848 850 850 850 855 854 852 855 859 857 849 841 840 841 842 845 845 843 844 843 842 844 845 844 845 844 844
801 802 802 801 804 810 810 809 809 807 808 810 810 812 814 812 811 812 813 814 815 815 814 816 820 823 825 824 820 818 821 822 821 821 822 825 827 827 827 828 828 827 827 831 835 833 834 844 852 847 843 847 850 851 850 849 848 846 843 844 845 846 847 847 847 849 848 847 851 856 852 843 839 842 843 842 843 843 842 842 842 842 844 844 843 843 843 843
801 802 802 801 805 812 812 811 812 810 810 811 811 811 811 810 810 811 813 815 815 814 814 815 818 821 823 823 820 816 817 819 819 818 820 821 822 824 824 826 826 826 827 832 837 839 839 840 845 849 847 847 853 857 853 849 850 849 843 840 843 845 846 846 846 847 846 845 847 847 843 839 841 845 842 839 841 842 840 840 841 841 842 843 843 842 841 842
Wind_Speed
9 10 10 10 10 10 10 10 10 9 9 10 11 11 11 11 10 10 10 11 11 11 10 10 10 10 10 10 10 11 12 12 7 3 4 3 1 2 2 0 1 0 2 4 7 8 6 4 3 4 5 2 2 1 2 1 2 4 3 4 2 3 3 5 6 5 3 2 2 2 2 3 2 2 3 3 6 5 4 4 4 7 9 11 13 21 25 21
9 10 10 10 10 10 10 10 10 10 10 11 11 11 11 11 11 10 10 10 10 10 10 10 10 10 10 9 10 10 12 12 6 4 3 4 1 3 0 1 2 3 4 7 8 9 6 1 1 4 4 2 2 2 2 2 2 3 3 3 3 5 5 5 7 5 3 1 1 2 4 3 0 1 3 2 2 3 3 3 4 9 11 14 17 22 22 17
9 9 10 10 10 11 11 11 11 11 11 11 11 11 11 10 10 9 9 9 9 10 10 10 10 10 10 9 9 9 11 8 3 3 5 7 2 3 1 2 5 6 6 8 7 6 5 3 4 4 5 2 2 2 2 1 1 2 3 2 5 6 3 4 6 5 4 6 7 5 5 3 1 3 2 1 1 1 3 3 4 9 9 14 15 17 18 14
9 10 10 10 10 11 12 12 12 12 11 11 11 11 10 9 9 9 9 9 10 10 10 11 11 11 10 8 8 8 8 4 2 4 5 7 3 4 5 6 7 8 7 8 6 4 4 4 4 4 5 2 3 2 2 2 2 1 3 4 6 4 2 6 6 6 6 8 9 7 4 2 3 3 1 3 4 3 5 7 5 10 14 16 13 13 15 14
9 9 9 10 11 12 12 12 12 12 12 11 11 10 9 9 9 10 10 10 11 11 11 11 11 11 9 8 7 7 5 4 3 5 5 5 4 5 7 8 9 9 8 8 5 2 3 4 5 5 4 2 3 2 1 3 3 1 3 6 6 5 3 6 6 7 7 5 6 9 7 4 4 1 4 7 5 4 5 7 5 10 15 17 16 14 14 11
8 8 9 10 11 12 12 12 12 11 11 10 10 9 9 9 9 10 10 11 12 11 11 11 11 11 10 8 5 5 3 3 4 3 5 4 6 8 9 9 9 8 8 7 3 2 3 4 5 4 3 2 1 0 2 3 2 1 4 3 5 5 5 6 6 7 6 6 6 8 6 5 5 3 4 7 7 3 5 4 5 10 13 15 16 15 12 9
8 8 9 11 12 12 12 11 11 11 10 9 9 8 9 9 9 10 10 10 10 10 10 10 10 10 9 8 5 3 4 2 4 2 4 5 7 9 10 9 8 7 6 4 1 3 3 6 5 3 4 4 0 2 2 2 2 1 3 5 4 5 7 7 1 4 5 9 8 6 5 8 8 4 3 6 7 2 5 2 10 12 13 13 11 11 10 8
8 9 10 11 12 12 12 12 11 10 10 8 8 8 8 8 9 9 10 10 9 9 10 9 10 10 9 6 2 4 5 3 4 2 3 4 6 7 8 6 6 4 3 1 2 2 2 4 2 3 3 2 2 1 2 2 4 2 4 5 3 2 4 7 5 2 3 6 5 8 7 9 10 4 4 7 4 3 3 6 11 13 13 10 9 8 7 6
8 9 10 11 11 12 12 11 11 10 10 9 8 8 8 8 8 9 9 9 9 10 10 10 10 10 10 5 3 6 4 5 4 3 2 3 3 4 4 3 3 2 1 1 1 3 1 1 0 2 1 1 2 2 2 3 2 4 5 4 1 4 6 8 8 6 2 3 6 10 5 4 4 2 3 6 2 3 5 8 9 12 11 9 9 7 6 6
8 9 9 10 11 12 12 11 11 11 11 10 10 10 9 9 7 7 8 8 8 9 9 9 10 10 9 4 5 6 3 5 4 2 2 2 1 1 1 0 1 2 1 1 2 4 2 2 2 2 2 2 1 2 1 3 2 4 4 2 2 3 6 8 8 8 3 2 6 11 4 1 3 2 2 5 2 5 7 7 7 11 10 9 8 6 6 6
7 8 8 10 11 11 11 11 11 11 12 12 12 12 11 10 8 7 6 6 7 7 8 8 9 10 6 3 7 4 2 4 1 1 1 1 3 3 3 3 3 3 2 2 4 6 5 4 3 2 1 1 0 2 2 2 1 0 3 2 7 3 8 13 9 8 5 1 4 9 8 2 4 4 4 7 2 7 7 6 7 9 8 8 8 6 5 4
6 7 8 10 11 11 12 12 12 12 12 12 13 12 12 10 9 8 6 6 6 6 7 7 8 9 6 4 5 2 3 4 3 3 3 4 6 7 6 7 6 6 5 4 4 6 5 4 3 3 2 0 1 2 2 2 3 2 2 6 7 6 11 17 11 8 6 3 1 9 8 2 3 5 8 10 3 6 8 6 6 7 7 7 7 6 5 6
5 7 9 10 11 12 12 13 13 12 12 13 13 13 11 11 10 8 6 6 6 6 7 7 9 8 5 3 1 3 4 5 4 6 7 8 10 10 9 9 9 9 8 8 7 3 2 4 3 1 2 2 2 2 2 5 4 3 5 5 4 7 10 14 11 9 7 5 7 5 4 4 4 8 10 9 5 7 7 5 5 5 6 7 6 7 6 9
5 7 9 10 11 12 13 13 13 13 13 14 15 14 12 11 10 8 5 5 5 5 7 8 9 7 3 0 3 4 6 7 6 7 8 9 11 11 9 6 6 8 8 11 9 3 3 3 4 1 1 3 1 3 4 6 4 3 4 3 4 4 3 9 12 12 8 5 7 6 4 5 5 10 12 8 6 8 7 7 7 5 7 8 8 9 8 9
5 7 9 10 11 12 13 13 13 14 15 16 17 14 12 11 9 6 4 4 3 4 5 7 8 5 3 2 3 4 6 7 6 6 6 7 9 8 7 7 9 11 8 8 7 2 3 1 3 2 2 2 5 5 4 5 5 4 3 3 5 3 1 6 12 14 6 5 9 9 3 5 5 11 14 7 8 11 11 11 12 10 9 9 9 9 9 9
6 7 9 10 12 12 13 13 14 16 17 18 16 11 9 7 5 3 2 3 2 2 4 5 6 5 4 2 4 4 5 5 5 5 6 8 8 7 8 11 11 10 7 5 2 2 1 2 4 3 2 5 6 5 4 5 5 5 4 2 4 3 2 4 8 14 9 5 11 9 4 3 6 12 13 7 13 15 14 15 16 14 11 10 10 9 9 9
6 7 9 10 11 12 13 14 16 17 18 17 12 11 11 7 2 1 0 2 1 1 2 2 2 4 2 2 3 4 4 5 6 7 7 8 9 10 8 6 5 7 6 3 3 2 2 3 2 2 3 4 3 4 5 4 3 3 4 4 2 4 3 3 4 10 11 10 11 11 9 6 7 12 14 13 18 18 15 15 16 15 12 11 10 9 9 9
6 7 9 10 11 12 13 14 17 17 17 14 10 10 12 8 4 3 2 2 1 1 2 1 2 3 2 4 3 5 7 6 7 8 7 7 7 8 5 0 2 5 6 4 5 5 4 4 3 2 4 5 4 5 5 1 3 4 3 5 3 4 5 5 3 4 11 16 12 13 12 11 12 14 15 14 17 17 12 12 13 13 13 11 9 9 8 9
6 7 8 10 11 12 13 14 16 16 14 14 9 7 10 8 3 2 2 3 3 2 1 2 3 3 2 6 6 8 9 6 7 7 5 5 3 1 1 2 3 4 4 4 5 5 3 4 5 4 4 5 4 2 4 5 6 8 5 6 6 5 3 3 4 2 7 16 14 12 11 12 15 16 14 12 13 15 11 11 11 9 10 8 8 7 6 8
5 7 8 9 10 11 12 14 15 13 14 15 10 5 7 7 4 4 5 4 1 2 1 2 2 1 3 5 7 9 9 4 3 4 4 5 2 2 4 5 6 6 4 2 3 4 3 6 5 3 3 5 5 2 4 5 6 8 6 5 5 6 3 0 2 2 2 10 9 9 14 15 15 15 12 10 12 15 12 11 10 8 8 6 6 7 5 6
5 7 8 8 10 10 11 13 12 12 14 15 12 6 3 3 3 3 5 5 4 3 2 4 3 3 6 7 7 7 4 2 4 5 7 8 4 4 4 5 7 6 4 1 2 3 4 7 3 4 3 4 5 4 7 7 7 7 6 6 4 4 4 1 4 4 5 10 4 7 16 15 12 12 12 12 15 14 11 9 8 8 9 7 7 7 4 2
5 6 7 8 9 9 11 11 9 10 13 16 14 7 3 3 2 3 2 3 6 3 1 5 2 3 8 6 6 3 4 5 7 8 10 9 7 5 3 5 8 3 4 3 4 5 6 4 5 6 2 4 6 6 8 8 6 6 4 6 4 2 3 3 5 4 6 9 3 8 17 12 9 11 12 14 13 10 9 9 6 7 9 8 8 6 6 2
5 6 7 8 8 9 10 9 7 7 10 13 12 7 3 8 7 2 2 1 5 5 3 3 2 4 6 3 4 4 6 5 4 8 13 9 4 4 4 6 6 3 4 5 5 5 4 2 5 3 3 3 4 6 8 7 5 4 3 6 4 2 2 2 3 4 6 8 6 9 14 9 9 11 12 12 9 9 10 9 6 6 7 6 5 4 7 8
5 6 7 8 8 8 9 7 6 6 6 7 9 9 10 13 9 1 3 2 3 6 3 2 1 1 3 3 4 5 5 2 1 7 12 8 3 3 4 4 5 5 4 6 9 7 3 2 2 4 5 4 4 7 7 6 4 2 2 6 5 2 3 4 4 5 6 7 6 7 9 8 9 10 11 9 9 11 10 7 7 6 6 4 3 3 5 7
5 6 7 8 8 8 9 5 5 8 5 3 5 11 15 16 10 1 3 3 2 6 4 2 2 1 3 4 5 2 4 3 2 4 9 8 2 2 3 2 4 3 2 7 10 7 2 2 2 5 6 6 7 6 4 4 3 2 0 5 7 6 7 7 5 3 4 4 3 4 6 5 7 9 9 7 9 12 9 8 9 8 8 6 6 6 6 6
4 6 7 8 8 8 7 1 5 10 4 1 6 14 16 15 8 2 4 4 2 5 4 2 2 3 5 5 3 3 5 2 2 5 11 11 3 3 3 3 3 3 5 5 6 3 2 4 4 6 6 8 7 4 2 3 5 2 1 4 8 11 10 5 2 4 3 2 4 5 5 3 4 7 7 6 9 11 9 9 10 8 7 7 6 5 5 6
4 5 7 8 8 8 5 1 6 7 1 3 11 15 16 12 3 3 3 5 3 3 3 3 3 4 4 4 3 4 3 4 4 8 13 12 6 3 5 3 1 1 2 4 4 0 1 5 6 7 7 7 6 3 2 4 6 1 0 6 10 11 10 5 4 5 3 3 4 9 6 4 3 4 5 5 9 9 8 8 7 6 6 5 5 5 5 5
4 5 6 7 8 8 5 4 6 3 1 8 13 16 16 7 2 3 5 4 2 2 1 3 3 3 3 4 7 6 2 2 3 8 13 13 10 4 6 3 3 1 3 5 4 2 0 4 5 5 6 5 2 3 4 3 5 2 1 7 7 6 7 5 6 5 2 2 4 8 6 4 3 2 3 5 8 7 7 6 5 5 4 4 5 5 5 5
4 5 6 6 7 6 5 6 6 3 6 12 15 18 13 1 3 4 5 2 2 2 1 2 3 4 4 6 8 5 3 4 3 5 10 12 12 6 5 2 5 6 6 6 6 1 1 1 3 6 5 1 1 3 3 3 4 1 5 8 6 6 6 5 5 4 3 5 3 7 5 4 2 2 3 4 4 3 4 4 4 3 4 4 5 5 5 5
4 4 5 6 6 6 7 8 5 5 10 13 16 17 6 3 4 5 2 1 1 2 1 2 2 4 5 6 6 6 6 5 3 5 7 6 10 8 3 1 5 7 6 7 5 1 3 2 2 4 2 2 3 1 4 4 4 4 6 8 7 6 5 4 4 3 5 5 3 5 5 2 2 1 1 1 1 1 2 1 2 3 5 5 4 5 4 4
4 4 5 5 5 6 7 6 5 8 12 14 17 11 2 2 5 6 1 2 1 3 3 3 2 4 7 6 3 5 6 5 5 6 6 5 8 9 6 4 4 5 5 6 5 5 6 6 3 2 3 2 2 1 3 5 5 5 4 5 6 4 5 4 4 4 5 2 3 4 4 3 3 1 1 1 2 3 3 2 2 2 3 4 4 4 3 3
4 4 4 5 5 6 6 6 8 11 13 16 14 5 4 3 3 3 1 3 1 2 1 1 2 4 5 6 4 4 3 3 5 5 4 4 6 5 5 3 1 3 3 2 3 5 5 3 5 6 4 5 6 2 3 6 6 6 4 5 5 3 3 3 3 3 2 1 2 4 4 2 3 1 1 2 1 1 3 2 3 3 1 2 4 4 3 3
3 3 4 5 6 8 8 9 11 11 14 14 8 4 6 4 1 2 2 2 1 2 0 1 2 3 4 5 4 2 3 3 4 5 4 3 5 4 3 2 3 3 1 1 2 4 3 4 8 9 5 5 6 3 3 4 4 4 3 4 4 3 3 1 2 1 0 2 2 4 3 1 0 0 2 2 2 1 2 3 3 3 2 0 3 4 4 4
2 3 4 6 6 7 8 9 9 10 13 10 4 4 5 3 2 2 1 2 2 1 2 1 3 4 5 5 1 1 4 3 4 5 4 4 5 4 4 4 4 4 3 3 2 2 2 3 6 5 3 5 4 2 2 2 3 2 2 4 4 3 4 2 2 2 2 1 3 4 2 1 1 1 3 3 2 2 4 4 2 1 1 2 3 4 4 4
3 4 5 6 6 5 5 7 8 10 9 6 6 5 3 2 2 1 2 3 2 2 3 2 3 5 5 4 3 1 3 1 3 5 4 4 3 2 3 4 4 3 4 3 0 2 4 1 5 4 3 2 4 2 2 5 3 1 1 4 3 2 4 3 2 3 3 1 3 3 0 1 2 1 3 2 3 4 4 3 3 1 2 3 2 3 4 3
4 6 5 5 4 3 4 5 7 9 6 5 7 4 2 3 2 3 3 2 0 0 2 3 5 5 4 4 4 4 2 2 3 4 3 2 1 2 2 3 3 3 3 3 1 1 3 1 5 6 4 3 3 2 2 3 1 1 3 2 2 3 6 5 1 2 3 3 1 2 1 2 2 1 3 4 4 3 3 2 2 2 3 2 2 3 4 4
5 6 4 4 4 3 4 5 7 8 5 7 6 2 2 2 3 4 2 1 1 3 4 2 2 3 2 3 4 6 4 3 4 3 2 2 2 3 4 3 3 2 2 3 2 2 4 0 5 4 3 4 2 2 3 3 4 3 2 2 3 2 4 4 3 3 4 2 1 2 1 1 1 0 2 2 2 1 2 2 3 4 3 2 4 4 4 5
6 5 2 5 6 4 5 5 7 6 5 6 4 1 2 1 2 3 2 1 1 4 6 2 1 1 1 2 3 6 4 3 4 3 2 2 2 1 2 3 3 3 2 3 2 1 4 2 6 3 1 6 5 5 4 5 5 5 4 2 2 3 1 2 3 1 2 1 2 3 2 2 3 3 2 3 5 5 4 4 3 4 4 4 4 4 4 5
6 3 2 7 7 2 2 4 5 5 6 4 1 1 1 1 2 3 2 2 2 4 4 1 1 2 2 3 0 4 4 3 2 2 2 2 2 1 2 1 3 5 4 4 4 0 2 4 3 5 2 4 6 6 3 5 6 4 4 2 2 3 2 2 2 2 3 2 2 1 2 3 4 4 6 7 7 6 5 4 4 5 5 4 4 4 4 4
4 2 1 8 7 2 1 3 4 6 5 3 3 2 1 1 2 2 1 1 2 2 2 2 1 3 2 1 2 1 3 3 2 2 2 1 1 3 3 2 2 4 4 5 4 1 2 4 1 6 5 3 3 3 1 2 4 3 4 4 3 2 1 2 2 2 3 4 2 1 1 5 5 3 7 8 7 6 6 5 5 6 5 5 5 5 5 5
4 2 3 6 5 3 3 5 4 4 3 2 2 1 0 1 0 3 3 2 2 1 2 4 3 3 3 2 2 1 2 3 3 2 1 1 2 1 3 1 1 2 3 5 5 2 1 3 3 2 4 3 1 2 1 2 1 3 2 1 1 1 1 3 3 2 2 3 3 3 1 5 5 2 5 7 7 6 6 6 5 6 6 6 5 5 5 5
5 2 4 4 2 1 5 4 2 2 3 2 1 1 0 1 2 2 4 4 3 2 3 4 3 3 3 2 1 1 3 3 3 2 1 0 2 2 3 3 1 1 3 2 2 1 1 4 4 2 1 0 4 4 1 1 2 4 2 2 2 1 3 5 2 1 2 2 1 3 1 5 5 3 5 5 5 6 5 5 6 5 5 5 5 5 5 4
3 1 2 4 0 1 6 4 3 3 2 1 1 0 1 2 2 2 3 4 3 2 4 3 1 2 2 1 2 2 3 2 1 1 1 1 2 4 2 4 3 2 4 2 2 1 2 4 4 2 3 4 6 6 3 2 4 4 3 2 3 2 2 4 4 3 2 1 0 2 1 5 5 3 3 3 3 3 4 5 5 5 5 5 5 6 5 3
2 2 2 6 2 1 4 2 1 2 2 2 2 3 4 2 2 2 2 2 2 2 3 2 0 2 1 2 3 3 2 2 1 1 0 1 2 3 2 5 3 2 2 1 2 1 1 1 4 3 3 5 6 6 6 5 4 2 2 3 3 3 4 3 2 3 3 1 2 3 1 6 5 4 2 1 3 4 5 5 5 5 5 5 5 5 4 2
2 0 2 6 5 4 3 3 5 4 0 2 4 3 4 3 2 1 2 2 1 2 3 1 0 2 3 3 4 3 2 3 2 1 1 1 3 4 4 6 3 2 1 2 3 3 3 2 3 5 3 1 1 2 2 2 3 1 1 3 4 4 3 2 2 4 2 1 3 4 3 5 5 3 2 2 4 5 6 6 5 5 5 5 5 4 3 2
2 1 2 5 6 5 2 1 4 5 3 3 3 2 2 2 1 1 3 3 2 2 3 1 0 3 5 5 5 4 4 3 3 2 1 1 3 3 4 5 3 3 3 5 5 4 4 2 2 5 5 5 5 4 3 1 1 1 2 3 2 2 3 4 4 2 2 3 1 3 5 2 4 4 4 4 5 6 6 6 6 6 5 5 5 4 3 3
2 1 1 1 3 3 3 2 4 4 3 4 3 0 1 1 2 3 3 2 1 2 3 2 3 3 1 2 4 2 3 4 4 3 1 2 3 3 5 3 3 5 4 5 4 3 5 3 2 4 3 4 6 5 3 1 2 1 1 1 2 1 4 5 3 1 3 3 3 6 5 3 6 7 7 7 6 6 7 7 7 6 5 5 4 2 2 4
2 1 2 2 0 0 2 2 3 5 4 3 3 1 1 2 1 1 1 2 2 3 3 2 5 3 2 3 4 2 1 3 4 1 0 1 1 3 5 3 3 5 4 4 3 3 6 1 0 2 1 3 2 3 1 2 1 2 3 1 2 0 2 1 2 4 6 4 4 6 5 5 7 7 8 9 8 8 8 7 5 4 3 4 3 3 4 5
2 2 1 1 1 3 2 1 3 6 5 3 2 1 2 3 1 2 1 3 4 4 4 3 3 4 1 3 5 4 3 3 1 2 2 1 0 1 2 2 2 4 5 4 4 3 5 1 1 1 2 5 5 2 2 4 3 1 1 2 3 3 4 3 2 4 4 4 5 5 5 7 7 7 8 7 6 7 5 2 3 4 4 4 4 5 6 5
2 1 1 2 3 1 1 2 4 5 3 3 2 1 2 4 2 1 0 3 1 3 3 5 4 1 2 3 5 3 6 8 5 3 5 4 1 1 1 1 1 3 5 3 2 2 3 1 1 3 4 5 6 5 5 4 3 1 4 4 2 1 2 2 2 3 2 3 2 4 3 6 7 6 6 3 3 5 3 4 6 5 4 5 5 6 6 6
1 1 1 3 2 3 3 2 3 4 1 1 2 2 1 3 4 3 1 1 4 3 3 7 6 2 3 4 5 3 6 8 7 5 8 7 3 3 2 2 4 1 4 2 1 3 3 2 1 4 5 3 4 6 6 5 5 3 6 6 2 2 2 2 2 3 4 3 2 1 1 5 6 3 2 0 3 5 5 6 6 5 4 5 6 6 6 6
3 0 1 4 2 3 2 2 3 3 3 2 2 3 2 4 5 5 3 2 0 2 4 8 8 3 4 3 3 5 8 9 7 5 7 5 3 3 1 2 5 3 1 2 2 2 3 3 1 3 3 4 5 5 4 5 7 4 6 4 5 3 2 2 1 3 4 5 5 3 5 5 4 3 2 2 2 4 5 6 5 5 5 5 6 7 6 6
Wind_Direction
346 354 356 349 339 334 332 333 336 339 346 345 341 340 341 342 341 345 343 341 341 335 333 328 326 327 324 327 328 330 333 334 330 293 267 302 6 114 111 11 336 168 169 129 117 119 93 61 110 135 128 88 17 16 5 9 69 57 76 93 128 196 198 192 190 194 184 308 339 35 58 126 186 350 3 12 39 49 29 15 48 53 58 93 111 124 128 126
357 359 354 349 342 340 343 344 346 349 349 344 343 342 341 346 347 348 343 337 334 329 330 327 326 325 322 327 329 333 335 332 322 288 304 348 342 191 258 30 111 111 131 127 128 135 121 43 184 122 83 53 348 21 18 349 77 91 111 117 194 208 207 195 186 191 204 153 110 183 158 126 108 56 26 10 6 32 63 345 61 83 79 103 118 124 126 123
2 358 352 351 349 351 356 356 356 352 348 347 347 347 347 349 346 341 335 332 330 329 331 330 328 325 327 331 331 337 332 332 344 339 12 24 23 192 170 119 125 116 119 125 125 125 131 160 157 103 64 59 355 45 70 19 147 155 115 130 235 222 239 238 198 198 205 149 146 192 163 125 203 127 37 20 115 314 192 210 135 123 117 119 126 127 126 116
0 355 355 357 359 3 6 5 1 354 351 352 353 354 351 345 341 337 334 332 331 334 334 333 330 328 335 337 333 334 333 4 22 338 17 27 42 127 145 143 135 127 122 123 115 93 119 122 98 80 71 59 336 27 126 220 187 147 133 182 230 196 246 249 197 201 205 163 163 166 127 158 193 120 103 139 133 268 240 226 193 152 145 136 134 131 129 118
357 359 4 8 12 14 14 9 2 359 357 358 360 357 349 346 345 342 340 338 341 344 341 338 333 335 341 339 334 325 350 54 336 333 35 32 57 122 141 134 131 131 125 129 131 93 95 80 62 58 63 68 355 21 224 224 146 146 217 203 204 164 237 251 172 194 205 170 169 147 143 174 144 128 190 168 179 230 247 242 198 146 150 144 138 134 133 127
4 14 17 18 23 22 17 9 4 2 0 2 4 359 356 354 351 350 349 349 352 349 344 340 336 341 344 342 335 323 39 94 300 346 49 39 73 103 116 116 123 126 127 140 154 96 71 46 56 66 58 64 67 57 268 263 114 227 270 253 223 186 232 262 140 176 189 143 163 163 164 136 132 242 193 182 214 235 272 245 127 125 140 135 132 134 138 137
19 25 26 26 30 26 17 10 4 1 359 2 3 1 4 2 1 359 358 359 357 347 342 341 341 348 351 348 334 341 79 95 304 22 65 67 85 94 102 106 112 118 136 144 70 83 70 44 58 114 82 44 176 229 268 314 36 184 266 297 266 194 217 276 105 152 166 163 169 147 142 140 170 223 137 199 232 290 303 68 100 111 121 118 119 124 131 133
29 29 30 31 32 26 17 9 2 360 358 358 357 359 3 4 6 4 5 3 353 348 348 347 347 354 358 352 359 32 52 4 343 64 86 97 97 93 100 103 104 110 136 136 24 87 71 53 73 133 72 20 153 266 297 4 16 153 233 283 294 229 248 314 345 73 149 187 140 120 158 175 185 164 136 221 264 357 356 77 99 107 107 107 105 109 119 117
31 30 30 31 30 23 16 8 2 360 356 357 356 355 357 359 4 3 5 1 353 352 352 354 352 355 359 354 74 63 14 347 20 83 96 109 106 101 111 109 118 136 121 321 15 94 48 63 125 158 141 236 139 316 321 53 333 200 220 258 311 327 344 2 354 15 62 218 129 142 176 190 191 117 177 248 327 39 55 81 103 106 102 105 103 111 121 117
27 29 28 26 26 19 12 5 0 359 356 356 354 352 352 350 354 356 358 357 353 351 352 359 354 356 360 360 66 71 345 350 40 88 77 98 83 89 132 108 162 206 182 232 174 140 158 189 196 176 157 129 132 294 115 114 216 203 221 252 14 357 19 17 347 358 34 184 163 163 148 117 292 353 238 279 63 99 76 82 97 100 101 106 106 108 116 122
24 24 22 19 19 11 5 1 358 358 355 351 349 348 343 337 338 341 346 350 348 351 354 357 357 359 360 34 76 79 337 351 42 75 61 236 311 320 306 296 262 237 204 202 218 223 238 221 182 129 52 93 100 309 218 218 16 4 211 73 7 12 37 13 352 348 17 72 178 141 101 52 339 340 283 312 45 106 83 84 86 97 100 104 109 104 109 113
18 15 14 13 10 2 359 358 357 357 351 347 345 342 336 328 326 327 328 337 342 351 353 357 3 358 360 49 78 63 337 328 270 263 261 265 293 298 301 299 286 276 256 244 243 237 243 233 150 95 307 185 1 339 219 270 44 17 80 85 354 11 33 6 350 339 23 28 271 106 83 1 347 311 304 328 351 93 84 84 76 97 95 94 100 86 75 56
10 9 8 6 2 357 355 355 356 353 347 343 341 336 330 318 317 318 314 326 341 349 351 0 1 355 25 55 11 338 335 325 291 267 268 275 287 294 298 292 287 286 268 263 265 247 250 240 170 167 252 153 298 307 76 19 38 26 47 84 355 21 23 359 352 349 36 356 303 87 89 274 295 311 324 347 5 58 71 73 64 89 83 76 74 64 57 45
4 3 1 359 357 354 353 354 353 348 342 339 334 329 319 309 311 304 293 316 338 347 346 1 1 359 50 37 287 321 322 324 312 286 283 280 287 302 305 295 307 310 282 271 271 284 333 258 188 187 237 149 285 337 32 11 24 38 29 34 22 52 349 351 11 12 37 343 325 95 125 267 291 322 332 346 24 49 45 25 20 37 57 60 56 57 52 43
358 356 354 354 353 353 352 352 349 343 341 337 332 326 311 303 303 291 279 311 337 348 343 2 9 16 53 334 294 297 300 310 308 295 295 282 285 301 311 313 325 332 317 292 277 281 339 235 135 41 312 5 41 44 19 1 16 31 47 357 359 74 271 349 20 20 17 324 9 80 134 288 301 327 328 342 43 48 41 24 12 15 34 50 51 54 54 44
351 349 347 349 351 351 350 348 346 343 341 341 342 345 337 320 307 285 272 319 336 333 344 4 16 50 85 345 312 298 276 277 289 294 286 276 271 273 299 311 318 341 341 315 287 237 296 81 86 48 4 21 53 78 42 23 10 5 64 60 333 17 358 339 13 12 10 357 14 52 103 334 321 334 338 23 55 49 48 38 29 26 28 48 54 50 50 41
344 343 341 346 350 349 347 347 347 344 342 347 2 17 15 14 26 43 33 22 39 296 353 5 5 42 65 304 327 318 283 276 289 291 287 281 272 269 289 316 327 351 349 7 71 86 24 36 57 48 41 43 65 85 58 33 17 1 50 82 31 40 36 5 352 351 22 53 34 48 73 36 358 4 13 45 61 60 56 48 46 45 39 43 51 50 46 40
337 336 337 343 346 346 347 348 348 345 346 356 19 27 22 34 60 61 69 35 37 53 24 338 20 54 340 315 320 297 292 298 302 297 297 296 282 273 274 307 349 348 359 29 42 31 21 18 51 56 15 21 30 65 93 164 159 147 117 113 101 59 61 63 68 329 36 57 44 45 55 37 27 29 32 44 61 66 60 60 63 61 59 52 47 48 45 43
331 330 334 338 345 346 347 350 349 352 1 11 22 26 21 25 36 39 23 13 33 56 4 319 34 95 246 296 302 302 298 297 310 301 303 318 298 229 136 66 34 19 34 37 15 13 32 29 39 55 14 358 355 38 144 175 157 147 131 125 133 95 69 92 125 216 59 61 45 46 55 43 39 38 35 35 55 62 50 56 63 64 71 69 69 64 57 61
324 325 330 336 343 345 347 352 355 11 31 31 28 26 17 13 9 348 343 357 123 177 235 219 126 178 270 288 301 322 314 292 316 312 340 351 346 84 56 39 41 45 51 64 25 354 56 63 37 30 332 324 333 2 110 109 102 112 104 94 110 103 91 57 61 312 98 78 43 51 64 50 46 45 40 34 45 49 35 38 48 59 62 47 61 62 57 80
319 322 326 332 340 342 346 354 8 35 52 50 47 55 50 34 31 335 326 324 277 236 247 239 205 241 261 268 294 329 345 340 357 356 10 2 356 36 11 23 56 44 1 354 48 355 59 74 7 312 306 333 0 41 86 85 78 87 103 95 69 78 98 63 29 14 94 96 50 58 67 51 45 47 43 44 48 48 40 37 28 45 62 39 34 31 6 93
315 318 322 329 338 339 342 356 20 48 61 58 56 76 108 35 339 259 279 327 297 296 303 279 280 280 269 271 299 335 59 23 357 354 4 3 11 37 11 41 77 73 344 10 52 27 45 53 301 298 342 38 23 34 78 86 86 82 92 103 89 81 95 21 1 16 82 92 72 69 70 53 41 51 51 51 56 58 54 56 28 25 53 44 31 8 326 4
313 313 322 328 336 336 337 355 23 51 62 60 60 71 40 0 346 259 160 73 298 310 358 333 350 327 315 351 9 33 60 31 344 331 347 2 21 57 68 57 72 68 18 50 92 82 61 341 295 326 58 81 30 30 77 84 72 84 105 112 127 196 122 32 18 72 87 105 123 85 74 54 32 44 52 49 56 65 52 53 51 35 49 48 33 347 334 17
307 313 322 328 336 334 331 345 14 33 45 65 62 36 359 353 358 95 145 84 310 300 305 312 330 331 313 324 353 39 76 43 349 318 343 15 40 40 78 97 74 52 47 84 94 97 108 283 323 49 60 99 80 35 61 87 55 31 124 130 156 205 128 135 131 96 79 98 114 83 69 44 22 32 42 34 43 60 51 46 59 56 61 67 48 15 8 32
307 315 321 332 338 332 328 333 9 10 13 86 46 1 353 351 347 84 120 64 343 303 308 334 351 334 291 313 334 51 101 39 14 313 342 18 30 33 58 99 86 87 142 100 86 89 88 323 29 69 45 56 73 38 32 105 91 12 286 166 165 143 121 131 128 77 44 51 35 56 78 37 7 26 34 25 38 50 45 46 55 55 53 51 40 27 23 28
306 314 324 337 338 335 330 314 359 357 3 78 352 341 346 346 336 138 104 52 14 313 332 354 351 348 334 339 340 58 68 7 307 356 7 9 352 119 70 349 71 141 187 121 88 104 51 356 45 77 54 43 52 32 4 116 106 45 348 161 144 127 128 137 78 55 67 62 2 28 98 102 16 25 18 22 50 47 36 39 43 45 46 45 39 30 31 32
301 313 329 337 342 349 348 306 344 352 26 335 333 333 338 340 332 144 80 37 6 299 314 301 322 21 353 334 7 74 71 278 302 9 7 6 353 86 76 2 57 113 220 100 65 153 344 7 30 53 54 48 40 4 321 118 111 13 313 138 141 137 140 143 81 79 120 146 31 22 58 109 68 23 347 19 56 47 34 34 32 38 44 46 43 33 37 37
293 311 325 334 344 356 6 353 340 345 340 327 325 328 333 331 172 114 77 68 317 287 301 292 308 9 338 355 36 80 151 289 26 345 338 10 16 48 75 46 137 95 359 93 102 244 355 37 46 62 58 50 29 296 270 125 97 305 169 129 139 127 116 111 95 94 94 91 40 359 18 87 77 4 344 24 50 40 24 22 22 35 45 53 52 39 33 24
288 304 318 330 335 343 351 338 325 314 325 326 324 326 329 318 140 63 75 103 298 287 189 317 338 342 341 26 29 34 39 30 63 314 331 17 20 38 88 68 122 90 31 77 116 185 356 102 140 106 70 26 276 309 316 102 108 179 117 94 73 58 60 67 81 90 47 55 30 328 354 84 93 350 358 32 49 28 354 353 359 16 41 51 46 39 34 21
287 294 307 323 323 322 325 317 303 313 324 323 323 326 336 104 76 57 64 212 285 278 275 8 353 337 11 54 25 8 36 20 335 344 358 17 12 24 67 41 92 84 35 43 67 353 320 322 124 91 33 244 189 343 9 59 117 131 96 79 68 40 29 41 45 66 63 40 345 326 350 76 115 338 350 63 139 223 254 310 13 23 32 36 31 30 25 16
288 291 299 314 314 313 315 312 311 317 320 321 325 333 40 63 54 91 129 253 255 313 357 13 336 8 40 74 43 360 29 6 345 18 19 7 14 22 24 11 44 53 23 23 15 350 9 16 359 320 311 3 90 119 13 32 74 89 76 87 89 24 8 30 360 30 71 12 300 331 355 48 90 106 256 233 211 201 205 181 102 66 28 14 13 14 7 10
295 296 299 307 307 299 285 291 313 315 316 322 331 1 94 32 26 109 277 312 313 310 354 325 323 33 55 75 55 359 17 5 358 35 40 25 33 38 40 42 83 44 11 346 349 2 22 9 327 325 332 29 48 40 354 11 40 63 63 76 84 29 21 40 346 11 70 260 296 346 0 52 78 102 232 246 239 194 201 181 143 144 97 17 4 355 350 358
318 311 311 307 300 293 281 292 309 310 313 324 345 53 80 71 58 229 280 326 271 272 313 342 355 41 69 65 47 12 40 12 353 28 40 54 50 28 32 70 114 104 125 188 42 18 356 320 346 360 349 17 62 73 6 357 18 45 84 100 100 90 71 57 303 356 313 253 306 342 6 81 63 279 239 267 313 299 151 124 133 166 176 311 333 327 329 338
348 329 317 307 300 293 288 298 303 303 320 340 38 66 64 94 203 235 275 270 253 319 16 31 358 18 48 52 8 84 65 16 2 35 20 28 44 9 347 4 34 81 109 83 72 83 68 339 346 3 325 350 39 90 126 119 53 37 150 124 115 141 130 158 207 171 189 242 318 339 22 125 232 254 266 280 330 36 89 84 78 134 242 278 299 311 312 317
352 329 318 310 312 302 287 296 301 310 331 20 67 64 92 179 242 189 228 258 281 336 345 27 50 37 26 6 344 78 114 46 18 48 30 32 61 20 330 326 353 54 94 80 63 96 83 300 289 292 275 5 17 333 113 103 62 350 125 78 68 169 135 130 169 160 154 120 351 343 15 238 250 276 316 357 55 43 48 53 56 63 309 303 286 290 293 297
348 334 323 312 326 323 294 297 308 321 345 69 69 57 145 203 202 167 209 244 39 325 324 358 41 53 8 337 344 354 39 76 49 45 23 24 62 5 336 270 310 32 100 119 149 103 80 284 293 321 335 38 53 339 14 92 117 22 52 52 241 165 116 114 113 36 66 82 1 309 243 299 313 328 358 35 65 30 9 35 30 288 295 307 259 271 283 279
352 338 324 328 342 315 284 293 310 331 19 84 84 109 208 210 171 180 219 217 108 91 89 41 22 56 11 355 341 327 350 32 37 47 24 7 8 352 338 282 291 29 117 135 150 163 118 164 300 345 356 330 32 44 12 55 107 100 99 206 207 113 98 105 94 23 32 69 288 296 248 262 279 208 7 44 111 227 280 308 313 290 287 279 256 261 266 261
350 338 330 350 343 287 264 293 315 349 55 77 74 155 204 178 174 200 206 150 125 68 81 99 89 83 121 90 344 324 358 19 4 42 55 16 25 15 349 304 302 4 27 112 106 75 106 93 301 305 267 300 343 48 23 2 43 97 140 175 121 112 110 52 80 109 78 84 270 305 313 256 217 203 198 192 196 214 245 275 287 267 256 259 267 278 282 282
355 358 359 353 348 286 251 303 329 31 67 75 85 203 200 198 244 237 205 132 101 76 78 136 122 75 101 123 97 336 22 50 18 56 81 41 21 18 41 358 307 346 11 92 113 340 90 107 286 292 294 318 356 37 30 336 350 37 61 24 41 117 139 93 93 140 124 131 209 299 338 281 233 202 183 195 213 211 220 249 251 245 250 255 263 275 279 279
16 58 328 349 8 77 58 2 20 51 69 110 171 204 212 203 268 284 296 89 104 86 97 174 116 84 101 129 131 30 35 59 71 63 62 49 355 328 0 39 309 328 5 59 85 46 35 94 157 299 335 22 15 13 32 315 331 13 29 14 6 9 59 102 70 67 114 132 160 134 296 269 253 199 175 195 215 209 204 216 229 245 257 258 258 262 266 272
54 69 303 348 35 71 43 41 39 58 91 111 143 182 192 157 307 338 346 50 104 114 127 140 127 114 132 107 77 75 51 45 40 61 61 35 82 5 340 35 224 298 11 40 41 39 23 88 116 332 5 44 316 282 235 254 221 133 107 58 114 224 113 92 53 1 88 122 153 150 205 265 264 201 179 195 205 209 208 206 219 246 254 258 268 270 270 273
72 74 300 346 52 47 48 53 1 62 102 97 118 170 290 89 69 353 345 23 66 68 68 96 106 104 120 113 83 97 91 55 12 58 112 324 141 183 303 355 94 138 85 62 325 306 120 100 87 50 22 212 272 276 202 156 123 118 101 94 126 115 95 110 146 228 58 65 134 121 115 272 269 221 198 200 197 207 214 205 210 236 249 263 280 286 293 293
91 171 327 15 221 184 61 54 333 24 52 268 233 5 4 78 67 10 11 19 30 61 49 45 94 94 99 127 114 108 100 85 40 59 167 288 254 220 263 2 22 86 78 81 268 339 80 85 73 20 311 309 306 315 349 45 73 68 17 33 83 49 77 130 164 164 99 47 142 76 1 273 276 277 234 192 171 202 228 221 212 227 254 272 278 288 315 336
123 206 328 17 19 165 78 96 148 59 339 319 45 12 353 54 60 31 48 21 9 99 79 35 63 90 85 79 89 110 122 110 89 342 192 148 299 276 345 17 23 64 68 162 187 74 73 95 88 74 2 346 344 346 350 354 26 69 314 338 46 71 83 95 88 81 86 169 149 118 234 258 277 321 332 134 158 212 241 241 225 222 240 261 269 283 307 328
84 121 290 352 25 77 94 165 151 127 40 49 56 6 356 30 42 77 112 71 42 121 109 58 24 81 66 53 60 54 53 103 129 321 9 184 292 313 357 9 30 47 343 173 132 91 115 127 108 115 120 139 271 314 316 330 349 9 301 4 46 77 90 117 81 61 75 171 134 141 214 263 289 308 305 191 192 224 245 250 246 236 237 251 261 271 280 257
99 79 300 334 10 55 78 145 112 119 150 105 63 352 37 64 311 328 80 78 52 72 77 49 33 68 49 49 61 31 12 47 91 97 103 275 279 291 331 357 38 33 41 86 76 75 104 91 98 134 150 175 189 218 233 168 65 4 354 12 31 62 73 90 83 66 152 150 145 217 199 239 280 249 226 225 215 219 233 237 242 246 250 253 254 263 271 258
95 127 150 349 349 22 36 22 63 97 147 126 104 313 79 87 313 343 32 68 71 60 65 39 37 74 89 84 86 54 356 18 37 71 119 267 273 288 316 0 28 356 21 66 51 76 93 40 35 117 152 209 201 221 265 73 117 194 212 7 349 69 82 75 78 171 150 114 296 260 186 175 251 237 221 226 220 217 229 229 228 233 242 246 247 260 263 254
78 156 166 146 208 103 76 35 76 93 87 94 111 94 53 57 43 46 36 36 32 47 82 43 9 24 171 152 116 117 28 28 18 24 131 271 303 336 338 357 3 350 22 40 7 85 106 61 343 115 6 305 261 245 233 96 97 177 172 190 311 171 143 134 197 184 155 152 241 242 182 193 240 238 223 218 207 208 221 222 214 215 235 240 223 213 224 235
74 106 306 19 97 173 170 23 97 100 75 60 75 75 127 129 133 232 236 43 12 1 76 113 309 339 79 121 113 133 174 130 111 255 204 147 57 18 359 342 334 9 50 48 6 81 116 67 317 100 29 9 9 6 97 83 59 6 239 240 258 233 212 216 206 191 187 202 215 193 193 231 245 229 225 224 206 207 212 182 175 196 220 219 206 208 217 229
69 121 284 37 56 73 12 21 80 94 49 36 79 89 137 140 154 237 258 91 95 330 57 130 198 218 111 124 109 135 202 175 160 203 173 137 128 193 175 213 226 8 31 54 7 38 84 34 332 82 48 357 356 18 32 47 70 289 305 317 316 208 198 206 177 174 205 242 201 143 182 262 264 232 232 245 177 173 170 178 199 215 219 206 208 220 223 231
58 189 163 102 63 357 5 23 69 97 70 21 130 146 141 185 182 154 63 147 161 182 168 158 166 137 70 90 102 141 205 178 164 185 170 154 165 184 191 193 173 46 9 48 9 6 66 73 10 65 56 315 328 14 4 14 54 18 312 303 256 168 181 217 203 182 191 190 151 111 248 264 271 269 269 260 138 161 192 206 212 229 227 203 206 218 223 232
33 255 89 103 88 353 24 47 42 99 177 235 191 177 195 217 194 128 76 324 176 151 177 161 148 107 60 92 169 202 195 181 183 191 171 145 121 143 151 143 146 133 104 119 49 12 96 95 47 72 78 277 305 8 12 32 43 351 283 239 195 188 201 231 271 240 206 152 138 203 231 232 262 300 276 223 174 196 218 213 205 220 225 212 210 219 227 237